Location: Newark
(44.3681°N, 100.3364°W)
Time: 00:47:43
(UTC+00:00)

deb Explorer IX - Pass Details

Date: 24 February 2020
Orbit: 547 x 1100 km, 38.8° (Epoch: 06 April)

Event Time Altitude Azimuth Distance (km) Brightness Sun altitude
Rises 16:44:45 0° 236° (SW) 2,972 ? 28.7°
Reaches altitude 10° 16:47:26 10° 225° (SW) 1,983 ? 29.0°
Maximum altitude 16:51:19 29° 166° (SSE) 1,077 ? 29.4°
Drops below altitude 10° 16:54:57 10° 105° (ESE) 1,836 ? 29.7°
Sets 16:57:20 0° 94° (E) 2,711 ? 30.0°
